This demonstration page uses our WeatherBlox Daily Observations layout. Learn more.

Left ArrowRight Arrow

33.98154, -81.23621

Hourly Observations for November 30, 2022

Temp ( °F °C ) Dew Point ( °F °C ) Humidity (%) Winds ( mph kmh ) Pressure ( in mb ) Visibility ( mi km ) Precip ( " mm )
12:56 am 00:56 Cloudy 57 13.9 51 10.6 80 80 ENE 5 7 30.06 1018 10 16 0.00 0.00
1:56 am 01:56 Cloudy 58 14.4 52 11.1 81 81 VRB 5 7 30.05 1018 10 16 0.00 0.00
2:56 am 02:56 Cloudy 57 13.9 54 12.2 89 89 NNE 6 9 30.04 1017 10 16 0.02 0.51
3:56 am 03:56 Cloudy with Rain 56 13.3 55 12.8 97 97 N 3 6 30.05 1018 4 6 0.03 0.76
4:56 am 04:56 Cloudy with Heavy Rain 56 13.3 56 13.3 100 100 ENE 6 9 30.02 1017 3 5 0.26 6.60
5:25 am 05:25 Cloudy with Mist and Fog 56 13.3 56 13.3 100 100 E 6 9 29.99 1016 5 8 0.02 0.51
5:56 am 05:56 Cloudy with Light Rain 56 13.3 56 13.3 100 100 ESE 6 9 29.98 1015 5 8 0.03 0.76
6:56 am 06:56 Cloudy 57 13.9 56 13.3 96 96 ESE 10 17 29.95 1014 7 11 0.03 0.76
7:16 am 07:16 Cloudy with Thunderstorms 57 13.9 57 13.9 100 100 W 10 17 30.05 1018 7 11 0.01 0.25
7:38 am 07:38 Cloudy with Thunderstorms 57 13.9 56 13.3 96 96 SE 7 11 30.03 1017 4 6 0.14 3.56
7:44 am 07:44 Cloudy with Mist and Fog 57 13.9 56 13.3 96 96 ESE 5 7 30.03 1017 4 6 0.16 4.06
7:56 am 07:56 Cloudy with Rain 58 14.4 57 13.9 97 97 WNW 3 6 30.04 1017 4 6 0.20 5.08
8:08 am 08:08 Cloudy with Heavy Rain 59 15 58 14.4 96 96 SW 7 11 30.05 1018 3 4 0.07 1.78
8:34 am 08:34 Cloudy with Rain 62 16.7 60 15.6 93 93 SSW 17 28 30.03 1017 6 10 0.14 3.56
8:56 am 08:56 Cloudy with Light Rain 62 16.7 60 15.6 93 93 S 18 30 30.00 1016 6 10 0.18 4.57
9:56 am 09:56 Cloudy 63 17.2 59 15 87 87 S 14 22 29.97 1015 10 16 0.02 0.51
10:56 am 10:56 Mostly Cloudy 63 17.2 59 15 87 87 SW 8 13 30.00 1016 10 16 0.00 0.00
11:56 am 11:56 Mostly Cloudy 65 18.3 60 15.6 84 84 SW 9 15 29.98 1015 10 16 0.00 0.00
12:56 pm 12:56 Mostly Cloudy 65 18.3 60 15.6 84 84 WSW 12 19 29.97 1015 10 16 0.00 0.00
1:56 pm 13:56 Mostly Cloudy 67 19.4 60 15.6 79 79 WSW 14 22 29.97 1015 10 16 0.00 0.00
2:56 pm 14:56 Mostly Cloudy 68 20 60 15.6 76 76 W 13 20 29.96 1015 10 16 0.00 0.00
3:56 pm 15:56 Mostly Cloudy 67 19.4 59 15 76 76 W 13 20 29.98 1015 10 16 0.00 0.00
4:24 pm 16:24 Partly Cloudy 67 19.4 58 14.4 73 73 W 12 19 30.00 1016 10 16 0.00 0.00
4:56 pm 16:56 Partly Cloudy 66 18.9 58 14.4 75 75 W 10 17 30.00 1016 10 16 0.00 0.00
5:56 pm 17:56 Partly Cloudy 62 16.7 58 14.4 86 86 W 6 9 30.03 1017 10 16 0.00 0.00
6:56 pm 18:56 Partly Cloudy 60 15.6 57 13.9 90 90 W 5 7 30.06 1018 10 16 0.00 0.00
7:56 pm 19:56 Clear 63 17.2 47 8.3 56 56 WNW 14 22 30.09 1019 10 16 0.00 0.00
8:56 pm 20:56 Partly Cloudy 57 13.9 28 -2.2 33 33 NNW 8 13 30.15 1021 10 16 0.00 0.00
9:56 pm 21:56 Clear 54 12.2 26 -3.3 34 34 NW 9 15 30.19 1022 10 16 0.00 0.00
10:56 pm 22:56 Clear 51 10.6 27 -2.8 39 39 NW 7 11 30.22 1023 10 16 0.00 0.00
11:56 pm 23:56 Clear 49 9.4 27 -2.8 42 42 NNW 3 6 30.23 1024 10 16 0.00 0.00

Powered by AerisWeather